Regional Weather Roundup
Issued by NWS

Home | Current Version | Previous Version | Graphics & Text | Print | Product List | Glossary On
Versions: 1 2 3 4 5 6 7 8 9 10 11 12 13 14 15 16 17 18 19 20 21 22 23 24 25 26 27 28 29 30 31 32 33 34 35 36 37 38 39 40 41 42 43 44 45 46 47 48 49 50
000
ASUS43 KMKX 192111
RWRWI

WISCONSIN REGIONAL WEATHER ROUNDUP
NATIONAL WEATHER SERVICE MILWAUKEE/SULLIVAN WI
400 PM CDT TUE AUG 19 2014

NOTE: "FAIR" INDICATES FEW OR NO CLOUDS BELOW 12,000 FEET WITH NO
SIGNIFICANT WEATHER AND/OR OBSTRUCTIONS TO VISIBILITY.

WIZ001-002-006>008-014>016-023>028-192200-
NORTHWEST WISCONSIN

CITY           SKY/WX    TMP DP  RH WIND       PRES   REMARKS
SUPERIOR ARPT  CLOUDY    69  67  92 NE7       29.72S
ASHLAND        CLOUDY    66  61  84 NE9       29.74R
HAYWARD        CLOUDY    71  62  73 N7        29.73F
SIREN          PTSUNNY   76  61  60 NE6       29.73S
RICE LAKE      LGT RAIN  71  63  76 SW7       29.74F
LADYSMITH      PTSUNNY   74  63  69 W8        29.74S
EAU CLAIRE     PTSUNNY   74  62  66 W10       29.72S
MENOMONIE      MOCLDY    77  61  57 W12       29.73S
NEW RICHMOND   MOSUNNY   75  62  62 W12       29.75S
OSCEOLA        RAIN      73  63  70 N7        29.76F
$$

WIZ003>005-009-010-017-018-192200-
NORTH CENTRAL WISCONSIN

CITY           SKY/WX    TMP DP  RH WIND       PRES   REMARKS
WOODRUFF       CLOUDY    72  62  72 N7        29.73S
RHINELANDER    PTSUNNY   70  60  70 NW10      29.72R
EAGLE RIVER    CLOUDY    67  57  72 NW10      29.71F
LAND O LAKES   CLOUDY    64  59  85 NW8       29.73F
PHILLIPS       CLOUDY    68  62  83 NW6       29.72S
TOMAHAWK       LGT RAIN  68  61  78 NW7       29.72R
MEDFORD        CLOUDY    70  63  78 W9        29.72S
MERRILL        PTSUNNY   74  65  73 W9G16     29.70S
$$

WIZ029-030-035-036-043>047-192200-
CENTRAL WISCONSIN

CITY           SKY/WX    TMP DP  RH WIND       PRES   REMARKS
WAUSAU         CLOUDY    72  62  71 W9        29.69S
MOSINEE        PTSUNNY   75  63  64 W13       29.71F
MARSHFIELD     PTSUNNY   74  62  66 W13       29.71F
STEVENS POINT  MOSUNNY   74  60  61 W9G17     29.71R
WAUPACA        MOSUNNY   79  63  57 W14G20    29.69R HX  80
WAUTOMA        MOSUNNY   78  62  57 W15G22    29.70S
WISC RAPIDS    MOSUNNY   77  61  57 W13       29.73R
CAMP DOUGLAS   PTSUNNY   75  66  73 W8        29.73R
$$

WIZ011>013-019>022-031-037>040-048>050-192200-
NORTHEAST WISCONSIN

CITY           SKY/WX    TMP DP  RH WIND       PRES   REMARKS
ANTIGO         MOSUNNY   71  65  81 W9        29.70S
STURGEON BAY   PTSUNNY   75  64  69 SW5       29.67S
GREEN BAY      PTSUNNY   76  65  68 W10       29.66S
MANITOWOC      PTSUNNY   76  66  71 SW9       29.68S
APPLETON       PTSUNNY   77  64  65 W12G17    29.69S
CLINTONVILLE   CLOUDY    75  63  64 W8        29.67S
OSHKOSH        CLOUDY    75  64  68 W6        29.69R
$$

WIZ032>034-041-042-053>061-192200-
SOUTHWEST WISCONSIN

CITY           SKY/WX    TMP DP  RH WIND       PRES   REMARKS
LA CROSSE      MOSUNNY   81  62  52 NW10      29.72S HX  82
SPARTA         PTSUNNY   75  60  58 NW10      29.74S
VIROQUA        MOCLDY    78  63  59 NW10      29.75F HX  80
BOSCOBEL       MOSUNNY   84  63  49 NW12      29.73S HX  85
PRAIRIE DU CHI MOSUNNY   83  58  42 W13G18    29.73S HX  83
PLATTEVILLE    FAIR      80  63  55 W16       29.75F HX  81
$$

WIZ056-057-062-063-064-067-068-192200-
SOUTH CENTRAL WISCONSIN

CITY           SKY/WX    TMP DP  RH WIND       PRES   REMARKS
BARABOO/DELLS  MOSUNNY   80  60  50 W13G18    29.71S HX  81
LONE ROCK      MOSUNNY   84  63  49 W14       29.72S HX  85
WATERTOWN      MOSUNNY   81  66  60 W10G17    29.69S HX  83
MADISON        PTSUNNY   79  63  57 NW8       29.70S HX  80
MIDDLETON      MOCLDY    82  62  50 W14       29.72S HX  83
MONROE         PTSUNNY   81  63  54 W20G25    29.72F HX  82
JANESVILLE     MOSUNNY   84  63  48 NW12G17   29.69F HX  85
$$

WIZ051-052-058>065-066-070>072-192200-
SOUTHEAST WISCONSIN

CITY           SKY/WX    TMP DP  RH WIND       PRES   REMARKS
MILWAUKEE      MOSUNNY   83  65  54 W13       29.68S HX  85
WAUKESHA       MOSUNNY   79  64  61 W14       29.70S HX  81
MILWAUKEE/TIMM MOSUNNY   81  64  57 NW12G18   29.69R HX  82
RACINE         CLOUDY    74  67  78 SW3       29.70R
BURLINGTON     PTSUNNY   81  64  56 W10G16    29.69S HX  82
KENOSHA        PTSUNNY   82  67  60 W13G23    29.68F HX  84
FOND DU LAC    MOSUNNY   78  64  61 W6        29.69F HX  80
SHEBOYGAN      MOSUNNY   77  65  66 W8        29.69S
WEST BEND      PTSUNNY   77  63  61 NW9       29.70S
JUNEAU         MOSUNNY   77  39  25 W7        29.71S
$$

LSZ147-162-192200-
LAKE SUPERIOR

STATION/POSITION TIME  TEMP    WIND        PRES    WAVE
                       AIR SEA DIR/SP/G            HT/PER
                 (UTC) (F)     (DEG/KT/KT) (MB)    (FT/S)
W MID LAKE BUOY  2050   56 56   30/ 12/ 12 1006.7R   2/ 5
PORT WING        2000   62     360/  6/  8 1007.1R
SAXON HARBOR     2040   63      40/  3/  4 1007.1S
$$

LMZ867-665-643>646-192200-
LAKE MICHIGAN

STATION/POSITION TIME  TEMP    WIND        PRES    WAVE
                       AIR SEA DIR/SP/G            HT/PER
                 (UTC) (F)     (DEG/KT/KT) (MB)    (FT/S)
N MID LAKE BUOY  2050   63 62  170/ 10/ 12 1003.9F   2/ 4
NORTHPORT PIER   2000   66     140/  7/ 12 1004.1F
SISTER BAY       2026   77        CALM       N/A
KEWAUNEE LAKESHO 2000   75     260/  6/ 10 1003.8F
SHEBOYGAN LAKESH 2100   76 67  270/  7/ 11 1005.4R
ATWATER BUOY     2100   73      20/  6     1006.5R
MILWAUKEE LAKESH 2000   81     300/  9/ 12   N/A
S MID LAKE BUOY  2050   70 67  300/  6/  8 1005.1R   2/ 4
KENOSHA   LAKESH 2100   83     250/ 18/ 22 1004.7S
$$

TC  - TEMPERATURE IN CELSIUS
VSB - VISIBILITY IN STATUTE MILES
WCI - WIND CHILL INDEX
HX  - HEAT INDEX




USA.gov is the U.S. government's official web portal to all federal, state and local government web resources and services.